Weather History for KTEB - September, 2013

Change the Weather History Date:

Sunday, September 29, 2013

  Actual Average Record
Temperature  
Mean Temperature 63 °F -  
Max Temperature 73 °F 69 °F 82 °F (2014)
Min Temperature 53 °F 49 °F 39 °F (2000)
Degree Days  
Heating Degree Days 2    
Growing Degree Days 13 (Base 50)    
Moisture  
Dew Point 52 °F    
Average Humidity 70    
Maximum Humidity 88    
Minimum Humidity 43    
Precipitation  
Precipitation 0.00 in - - ()
Sea Level Pressure  
Sea Level Pressure 30.17 in    
Wind  
Wind Speed 2 mph (ENE)    
Max Wind Speed 10 mph    
Max Gust Speed -    
Visibility 10 miles    
Events      
Averages and records for this station are not official NWS values.
T = Trace of Precipitation, MM = Missing Value Source: NWS Daily Summary

Daily Weather History Graph

Daily Weather History Graph

Search for Another Location

Airport or City:

Trip Planner

Search our weather history database for the weather conditions in past years. The results will help you decide how hot, cold, wet, or windy it might be!

Date:

Astronomy

Sep. 29, 2013 Rise Set
Actual Time 6:50 AM EDT 6:41 PM EDT
Civil Twilight 6:23 AM EDT 7:08 PM EDT
Nautical Twilight 5:51 AM EDT 7:40 PM EDT
Astronomical Twilight 5:19 AM EDT 8:12 PM EDT
Moon 1:28 AM EDT (9/29) 3:37 PM EDT (9/29)
Length of Visible Light 12h 44m
Length of Day
11h 50m
Waning Crescent, 27% of the Moon is Illuminated
Sep 29
Waning Crescent
Oct 4
New
Oct 11
First Quarter
Oct 18
Full
Oct 26
Last Quarter

Hourly Weather History & Observations

Time (EDT) Temp. Dew Point Humidity Pressure Visibility Wind Dir Wind Speed Gust Speed Precip Events Conditions
12:51 AM 59.0 °F 51.1 °F 75% 30.23 in 10.0 mi Calm Calm - N/A   Clear
1:51 AM 57.9 °F 51.1 °F 78% 30.23 in 10.0 mi Calm Calm - N/A   Partly Cloudy
2:51 AM 55.0 °F 51.1 °F 86% 30.21 in 10.0 mi NNW 3.5 mph - N/A   Clear
3:51 AM 55.0 °F 50.0 °F 83% 30.19 in 10.0 mi Calm Calm - N/A   Clear
4:51 AM 55.0 °F 50.0 °F 83% 30.19 in 10.0 mi Calm Calm - N/A   Clear
5:51 AM 53.1 °F 48.9 °F 86% 30.19 in 10.0 mi Calm Calm - N/A   Clear
6:51 AM 53.1 °F 48.9 °F 86% 30.19 in 10.0 mi NNW 3.5 mph - N/A   Scattered Clouds
7:40 AM 55.4 °F 51.8 °F 88% 30.20 in 8.0 mi Variable 4.6 mph - N/A   Overcast
7:51 AM 55.9 °F 52.0 °F 87% 30.20 in 10.0 mi North 3.5 mph - N/A   Overcast
8:13 AM 57.2 °F 53.6 °F 88% 30.20 in 4.0 mi Calm Calm - N/A   Scattered Clouds
8:51 AM 60.1 °F 54.0 °F 80% 30.21 in 10.0 mi NNE 3.5 mph - N/A   Scattered Clouds
9:00 AM 60.8 °F 53.6 °F 77% 30.21 in 10.0 mi Calm Calm - N/A   Mostly Cloudy
9:07 AM 60.8 °F 53.6 °F 77% 30.21 in 10.0 mi NNE 3.5 mph - N/A   Mostly Cloudy
9:28 AM 62.6 °F 55.4 °F 77% 30.21 in 10.0 mi Calm Calm - N/A   Overcast
9:39 AM 64.4 °F 55.4 °F 73% 30.21 in 10.0 mi Calm Calm - N/A   Mostly Cloudy
9:51 AM 64.9 °F 55.9 °F 73% 30.21 in 10.0 mi Calm Calm - N/A   Mostly Cloudy
10:28 AM 68.0 °F 55.4 °F 64% 30.20 in 10.0 mi NNE 3.5 mph - N/A   Mostly Cloudy
10:51 AM 68.0 °F 54.0 °F 61% 30.20 in 10.0 mi ENE 5.8 mph - N/A   Mostly Cloudy
10:58 AM 68.0 °F 53.6 °F 60% 30.20 in 10.0 mi ENE 4.6 mph - N/A   Partly Cloudy
11:42 AM 68.0 °F 53.6 °F 60% 30.18 in 10.0 mi Calm Calm - N/A   Overcast
11:51 AM 68.0 °F 54.0 °F 61% 30.17 in 10.0 mi Calm Calm - N/A   Overcast
12:02 PM 69.8 °F 51.8 °F 53% 30.17 in 10.0 mi Variable 6.9 mph - N/A   Mostly Cloudy
12:51 PM 69.1 °F 53.1 °F 57% 30.17 in 10.0 mi Calm Calm - N/A   Overcast
1:51 PM 72.0 °F 52.0 °F 49% 30.14 in 10.0 mi Variable 3.5 mph - N/A   Clear
2:51 PM 71.1 °F 50.0 °F 47% 30.12 in 10.0 mi SE 5.8 mph - N/A   Mostly Cloudy
3:51 PM 72.0 °F 50.0 °F 46% 30.10 in 10.0 mi East 4.6 mph - N/A   Partly Cloudy
4:51 PM 73.9 °F 50.0 °F 43% 30.08 in 10.0 mi ESE 10.4 mph - N/A   Mostly Cloudy
5:51 PM 69.1 °F 52.0 °F 54% 30.08 in 10.0 mi South 6.9 mph - N/A   Clear
6:51 PM 66.0 °F 51.1 °F 59% 30.09 in 10.0 mi SSE 6.9 mph - N/A   Clear
7:51 PM 64.0 °F 51.1 °F 63% 30.10 in 10.0 mi South 3.5 mph - N/A   Scattered Clouds
8:51 PM 64.0 °F 51.1 °F 63% 30.10 in 10.0 mi Calm Calm - N/A   Mostly Cloudy
9:51 PM 60.1 °F 51.1 °F 72% 30.09 in 10.0 mi Calm Calm - N/A   Clear
10:51 PM 57.0 °F 52.0 °F 83% 30.10 in 10.0 mi Calm Calm - N/A   Clear
11:51 PM 57.0 °F 52.0 °F 83% 30.09 in 10.0 mi Calm Calm - N/A   Clear